Location: Chanteloup
(48.8560°N, 2.7390°E)
Time: 18:55:53
(UTC+00:00)

Cosmos 2360 Rocket - Pass Details

Date: 24 October 2021
Orbit: 832 x 846 km, 71.0° (Epoch: 07 December)

Event Time Altitude Azimuth Distance (km) Brightness Sun altitude
Rises 18:14:00 0° 187° (S) 3,374 5.4 -15.7°
Reaches altitude 10° 18:16:30 10° 181° (S) 2,447 4.6 -16.1°
Maximum altitude 18:21:51 47° 109° (ESE) 1,109 2.4 -17.0°
Enters shadow 18:26:30 14° 40° (NE) 2,207 4.0 -17.8°
